Location: Stoke Bliss
(52.2667°N, 2.5167°W)
Time: 12:50:11
(UTC+00:00)

Envisat - Pass Details

Date: 02 December 2021
Orbit: 764 x 766 km, 98.2° (Epoch: 28 January)

Event Time Altitude Azimuth Distance (km) Brightness Sun altitude
Rises 05:04:08 0° 16° (NNE) 3,248 6.4 -25.6°
Reaches altitude 10° 05:06:30 10° 21° (NNE) 2,317 5.7 -25.2°
Maximum altitude 05:11:33 60° 101° (E) 876 3.5 -24.4°
Drops below altitude 10° 05:16:34 10° 182° (S) 2,299 5.5 -23.7°
Sets 05:18:53 0° 186° (S) 3,221 6.2 -23.3°
